Location: Unspecified
(34.0986°N, 0.0000°E)
Time: 03:47:37
(UTC+00:00)

NOAA 15 - Visible Passes

Search period start: 04 April 2026 00:00
Search period end: 14 April 2026 00:00
Orbit: 795 x 808 km, 98.5° (Epoch: 29 March)

Date Brightness Start Highest point End Pass type
(mag) Time Alt. Az. Time Alt. Az. Time Alt. Az.
4 Apr 5.3 18:47:34 10° S 18:52:46 59° W 18:58:00 10° NNW visible
6 Apr 7.3 19:36:28 10° SW 19:40:13 20° W 19:44:01 10° NW visible
7 Apr 6.3 19:09:02 10° SSW 19:13:50 36° W 19:18:41 10° NNW visible
8 Apr 5.1 18:42:18 10° S 18:47:32 66° WSW 18:52:48 10° NNW visible
9 Apr 7.7 19:59:42 10° WSW 20:01:26 11° W 20:03:10 10° WNW visible
10 Apr 7.1 19:30:56 10° SW 19:34:58 22° W 19:39:01 10° NW visible
11 Apr 6.1 19:03:39 10° SSW 19:08:35 40° W 19:13:33 10° NNW visible
13 Apr 7.5 19:53:43 10° WSW 19:56:09 13° W 19:58:36 10° WNW visible
